Temperature
17 16 15 14 14 13 13 13 12 12 12 12 12 11 11 11 11 11 11 11 11 11 11 11 11 11 11 11 11 11 12 12 12 12 12 11 11 12 12 12 13 13 13
18 17 16 15 14 13 13 12 12 12 12 12 11 11 11 11 10 10 10 10 10 10 11 10 10 10 10 11 11 11 11 12 12 12 12 12 11 11 11 12 12 12 12
18 17 16 15 14 13 13 13 13 12 12 12 11 11 11 10 10 10 10 10 10 10 10 10 10 10 10 10 11 11 12 12 12 12 12 11 11 10 11 11 11 11 11
18 17 16 15 14 14 13 13 13 12 12 11 11 11 11 10 10 10 10 10 10 10 10 10 11 11 11 11 11 11 12 12 12 12 11 11 10 10 10 10 10 11 11
18 17 16 15 15 14 13 13 13 12 12 11 11 11 10 10 10 10 10 10 10 10 10 11 11 11 11 11 12 12 12 12 12 11 11 11 10 9 10 10 11 11 11
18 17 16 15 14 14 13 13 13 12 12 11 11 11 10 10 10 10 10 10 10 10 10 11 11 11 11 11 12 12 12 12 11 11 11 11 11 10 10 10 10 10 10
18 17 16 15 14 13 13 13 12 12 12 11 11 11 10 10 11 11 11 11 10 10 10 11 11 11 11 11 11 11 11 11 11 11 11 11 11 10 10 10 11 11 11
17 17 16 15 14 13 13 13 12 12 11 11 11 10 10 10 11 11 11 11 11 11 11 11 11 11 11 11 11 11 11 11 11 11 11 11 11 11 10 10 10 10 11
17 16 15 14 13 13 13 12 12 12 11 11 11 10 10 10 10 10 10 10 10 10 10 10 10 10 10 10 10 10 10 10 10 10 10 10 10 10 10 9 9 9 10
16 16 15 14 14 13 12 12 12 11 11 11 10 10 10 10 10 10 10 10 10 10 10 10 10 10 10 10 10 10 10 10 10 10 10 10 10 10 9 8 8 8 9
16 15 15 14 14 13 13 12 11 11 11 10 10 10 10 10 9 9 9 9 9 9 9 9 9 9 9 9 9 9 9 9 9 9 9 9 9 9 8 8 8 8 8
17 16 15 14 14 13 12 12 11 11 11 10 10 10 10 9 9 9 9 9 9 8 8 8 8 8 8 8 8 8 9 9 9 9 9 9 9 9 8 8 8 8 7
17 16 15 14 14 13 12 12 11 11 10 10 10 10 9 9 9 9 8 8 8 8 8 8 8 8 8 8 8 8 8 8 8 8 8 8 9 9 8 7 7 7 7
17 16 15 14 13 13 12 12 11 11 11 10 10 9 9 9 9 8 8 8 8 8 8 7 7 7 7 7 7 7 8 8 8 8 8 8 8 8 8 8 7 7 7
16 16 15 14 13 13 12 12 11 11 10 10 10 9 9 9 9 8 8 8 8 8 7 7 7 7 7 7 7 7 7 7 7 8 8 8 8 8 8 8 7 7 7
16 16 15 14 14 13 12 12 11 11 10 10 9 9 9 9 9 8 8 8 8 8 7 7 7 7 7 7 7 7 7 7 7 8 8 8 8 8 8 8 8 8 7
16 16 15 15 14 13 12 11 11 10 10 10 9 9 9 9 9 8 8 8 8 8 7 7 7 7 7 7 7 7 7 7 8 8 8 8 8 8 8 8 8 8 7
16 16 15 15 14 13 12 11 11 10 10 10 9 9 9 9 9 8 8 8 8 8 7 7 7 7 7 7 7 7 7 8 8 8 8 8 8 8 8 7 7 7 7
16 16 15 15 14 13 12 11 11 10 10 10 9 9 9 9 9 8 8 8 8 7 7 7 7 7 7 7 7 7 8 8 8 8 8 8 7 7 7 7 7 7 7
16 16 15 15 14 13 12 11 11 10 10 10 9 9 9 9 9 8 8 8 8 7 7 7 7 7 6 7 7 7 8 8 8 8 8 7 7 7 7 7 7 6 6
16 15 15 15 14 13 12 11 11 10 10 10 9 9 9 9 9 8 8 8 7 7 7 7 6 6 6 6 7 7 8 8 8 8 7 7 7 7 6 6 6 6 6
15 15 15 14 14 13 12 11 11 10 10 10 9 9 9 9 9 8 8 8 7 7 7 7 6 6 6 6 6 6 6 6 6 6 6 6 6 6 6 6 6 6 6
15 14 14 14 13 13 12 11 11 10 10 10 9 9 9 9 8 8 8 7 7 7 7 6 6 6 6 6 5 4 4 4 4 5 5 5 5 5 5 5 5 5 5
14 14 13 13 13 12 12 11 11 11 10 10 10 9 9 9 8 8 7 7 7 6 6 6 6 6 5 5 5 5 4 3 2 2 4 4 4 4 4 4 4 4 4
13 13 13 13 12 12 12 11 11 11 10 10 10 9 9 8 8 8 7 7 6 6 6 6 6 5 5 5 5 4 4 3 3 1 2 3 3 3 3 3 3 3 3
13 13 13 12 12 12 12 11 11 11 11 10 10 9 9 8 8 7 7 6 6 6 6 5 5 5 5 5 4 4 3 3 2 1 0 1 1 2 2 2 2 2 2
Wind_Speed
6 12 16 16 15 13 12 11 10 10 10 11 11 12 12 12 12 12 13 13 14 14 15 15 15 15 15 15 16 17 17 18 18 19 20 19 17 17 17 17 17 16 18
9 17 18 17 15 14 12 11 11 10 10 11 11 11 11 11 11 12 12 12 13 13 14 14 14 14 14 15 16 16 16 16 17 17 18 18 16 17 17 17 17 15 16
11 18 18 18 16 15 14 13 12 11 10 10 10 10 10 10 11 11 11 12 12 13 13 13 13 13 13 14 14 14 15 15 15 17 18 18 16 16 16 16 16 16 15
15 18 17 19 17 16 14 13 12 11 10 9 9 10 10 10 10 10 11 11 11 12 12 12 12 12 12 13 13 14 14 14 15 15 16 17 15 14 15 15 15 15 14
15 17 18 19 18 16 15 14 13 11 10 9 9 9 9 9 9 9 10 10 10 11 11 11 11 12 11 12 12 13 13 13 13 15 16 16 16 13 13 13 13 13 12
12 16 18 20 18 17 16 14 13 11 10 10 9 9 8 8 8 9 9 9 9 10 10 10 11 11 11 11 11 11 11 11 12 13 13 14 14 12 11 11 11 11 11
10 15 17 19 18 17 16 14 13 11 10 9 8 8 8 8 7 7 7 8 8 8 9 9 9 10 10 10 10 10 10 9 9 10 11 12 12 11 10 10 10 10 10
11 14 16 19 18 17 16 14 13 11 10 9 8 7 7 6 6 6 6 6 6 7 7 7 8 8 8 8 9 9 9 8 7 8 8 10 10 10 9 9 9 9 9
12 12 12 16 17 17 16 15 13 12 10 9 8 7 7 5 5 4 4 4 4 5 5 6 6 6 7 7 8 8 7 7 6 7 8 9 10 11 10 9 9 9 9
8 9 10 12 15 15 15 15 14 13 11 10 8 7 6 5 3 2 2 1 1 2 3 4 5 6 6 7 7 8 7 6 6 7 8 9 11 11 11 11 10 10 10
8 7 9 9 12 14 14 14 14 13 11 10 9 8 7 5 2 1 0 2 3 3 4 5 6 6 7 7 8 9 8 8 8 9 11 11 12 13 13 13 12 12 12
13 10 6 9 11 13 12 12 12 12 11 10 9 8 7 6 4 2 2 3 5 5 5 6 7 7 7 7 8 9 9 9 10 11 12 13 14 15 15 14 14 14 14
12 12 10 9 12 12 10 10 10 10 9 9 9 9 8 6 5 4 4 4 5 5 5 6 7 7 8 8 9 9 10 10 10 11 13 14 15 15 16 16 16 16 15
10 13 11 10 10 12 11 10 10 9 8 8 9 9 8 6 5 5 5 5 5 6 6 6 7 8 8 8 9 9 10 10 11 12 13 13 14 16 17 17 17 17 17
11 13 12 10 10 11 10 9 9 9 9 10 9 10 10 7 6 6 6 6 7 7 6 6 6 7 7 8 8 8 9 10 11 12 13 13 14 16 17 17 17 18 17
11 13 12 13 12 11 9 7 8 10 10 9 9 10 11 10 8 7 6 6 7 8 8 7 6 5 5 6 6 8 9 10 11 12 13 13 14 15 16 16 16 16 16
10 11 13 13 11 11 9 9 9 10 9 8 9 10 10 10 9 7 5 5 6 6 5 4 4 3 3 4 4 7 8 9 10 12 12 12 13 13 13 14 14 14 14
8 10 12 12 11 10 9 9 8 9 8 8 8 8 8 9 9 7 4 4 4 3 2 1 1 1 2 3 4 4 6 8 10 11 10 10 11 10 11 11 12 13 14
8 10 12 11 12 11 8 8 7 7 6 6 6 5 6 6 6 5 3 2 2 2 1 0 1 1 2 4 4 5 5 5 7 8 8 9 8 8 9 9 11 13 15
6 8 10 10 10 9 6 5 4 4 3 4 4 3 3 3 3 4 2 2 2 2 1 1 1 1 1 3 4 5 6 5 4 4 5 6 7 7 8 9 10 12 16
5 8 9 10 9 9 6 5 5 4 3 2 3 4 4 4 4 4 3 3 3 2 2 2 1 2 2 3 3 5 5 4 4 3 3 4 5 8 9 10 12 14 16
5 7 9 10 10 9 7 5 4 4 3 3 4 5 5 5 4 4 4 3 3 2 3 3 2 1 2 2 2 3 5 6 5 4 4 4 4 7 8 12 15 16 17
6 7 8 9 9 9 8 6 5 5 4 3 2 2 4 5 5 5 5 4 4 3 2 1 1 1 1 2 0 1 1 4 5 5 5 4 4 4 6 12 15 17 18
5 5 7 8 8 8 9 8 7 5 4 3 3 2 3 6 6 6 6 5 4 3 2 1 1 1 2 1 2 1 3 3 3 5 4 4 5 5 7 8 12 16 18
6 6 7 8 8 7 7 8 8 6 4 4 3 4 3 4 5 5 5 5 3 2 1 1 1 1 2 2 2 2 2 2 5 5 7 5 5 5 6 6 10 14 17
5 6 7 8 7 7 7 8 8 9 8 6 4 4 2 2 2 4 4 3 2 1 0 0 1 1 2 3 3 3 3 3 4 5 7 7 9 5 6 6 7 10 14
Wind_Direction
199 189 176 163 158 152 140 128 119 111 106 101 95 89 85 80 75 71 68 64 60 58 58 59 57 57 58 58 56 53 53 51 49 46 43 45 53 55 55 54 51 44 46
162 178 172 162 159 154 146 136 125 118 113 106 99 93 86 82 76 74 71 67 64 62 61 60 58 58 58 57 54 51 52 52 51 48 42 33 41 53 53 51 51 49 48
151 171 171 163 160 154 146 138 132 126 117 111 105 99 91 85 80 77 73 70 68 65 63 62 60 59 58 55 52 51 52 52 51 47 39 26 25 47 49 48 48 47 46
156 168 169 164 161 156 149 144 140 134 126 119 113 104 96 90 85 81 76 73 70 67 65 63 61 60 58 55 52 52 52 51 49 43 35 25 20 42 44 42 42 42 42
156 166 167 164 162 160 155 151 147 142 137 130 122 111 102 95 89 84 79 75 72 68 65 63 61 59 58 55 51 49 50 49 45 39 31 22 14 33 42 39 37 36 36
155 164 169 166 165 162 159 156 152 149 145 138 127 117 109 102 94 87 82 77 72 68 64 61 58 56 53 50 47 46 47 48 42 36 27 17 7 20 32 32 30 29 28
154 164 172 169 169 166 164 161 158 157 152 144 135 128 118 108 100 93 85 77 71 65 61 57 53 50 48 45 42 41 42 43 39 30 19 8 0 8 16 18 15 14 14
153 163 176 174 173 171 169 167 165 164 161 154 147 141 130 119 111 102 89 78 67 60 53 49 46 43 40 38 36 34 34 37 32 18 3 354 349 350 355 359 358 355 355
155 163 179 178 176 176 174 173 171 168 167 163 158 152 143 133 124 114 99 81 63 51 44 37 32 29 27 25 23 22 20 26 21 0 344 336 335 338 339 338 337 335 335
158 168 180 179 176 177 178 178 174 173 174 171 167 160 154 149 137 123 109 86 32 20 16 12 8 5 6 5 3 2 5 9 351 336 327 324 327 329 329 327 325 322 321
177 183 181 177 173 175 179 181 178 179 181 178 173 169 164 155 147 103 93 261 290 313 328 337 342 348 355 355 348 346 350 341 327 318 315 315 322 324 323 322 320 316 314
190 191 185 178 173 174 179 181 179 180 183 180 174 171 169 175 186 209 260 285 293 305 311 321 331 345 348 335 330 331 328 322 313 307 307 312 317 318 318 317 316 313 310
191 191 188 181 176 174 175 173 174 176 179 181 181 179 178 183 200 222 250 271 284 292 295 302 312 315 314 312 312 313 311 308 302 300 302 306 311 312 312 312 311 310 307
185 195 191 183 179 179 176 174 176 176 180 183 188 188 183 187 203 220 234 250 261 265 267 275 285 293 296 296 295 295 298 296 296 297 300 303 309 311 310 309 308 307 305
192 195 193 184 182 179 176 176 178 183 188 193 196 199 199 198 209 220 231 238 248 250 250 258 267 277 284 290 291 287 289 292 294 295 296 301 307 311 311 310 309 307 306
200 196 191 189 185 179 179 179 181 190 195 197 203 209 210 212 214 216 226 235 245 248 250 254 263 270 278 284 288 290 287 290 291 293 296 299 305 312 315 315 314 312 310
201 192 190 190 182 180 181 183 183 190 192 197 209 215 215 218 217 215 219 232 244 251 252 257 271 276 285 292 292 296 292 290 290 294 298 302 307 313 320 325 327 326 323
196 187 187 187 181 181 178 177 179 184 190 200 207 212 217 221 220 210 212 232 243 231 226 247 276 295 298 304 301 297 293 292 293 298 303 308 313 318 325 336 345 347 344
192 181 179 176 176 177 168 166 166 168 178 191 193 198 208 211 209 198 201 220 192 134 99 21 26 320 309 314 305 295 291 290 299 307 310 315 322 329 336 344 352 355 350
174 167 168 164 162 156 145 135 131 129 134 144 148 156 161 157 164 161 142 113 107 98 61 43 13 348 307 313 310 303 293 296 306 303 306 317 331 342 348 349 349 348 343
140 151 158 155 154 151 149 148 143 142 130 109 104 109 112 113 115 116 107 93 90 92 76 56 40 12 351 350 344 325 317 319 322 300 302 318 333 342 346 346 341 335 329
147 150 151 154 156 158 154 143 132 129 122 112 98 84 84 97 105 110 112 103 93 91 68 55 57 39 355 18 31 354 340 337 336 329 333 325 325 334 336 334 326 318 314
156 157 155 153 152 148 138 122 104 92 87 91 85 76 59 86 97 105 109 107 98 99 91 71 90 106 328 337 334 154 336 295 304 309 310 307 309 315 318 315 308 305 305
165 149 141 142 143 144 144 147 146 146 148 154 139 113 74 79 90 99 104 104 101 98 97 82 113 150 163 271 302 242 224 220 265 303 299 290 293 294 290 295 296 297 296
152 144 137 133 135 141 146 147 139 131 131 125 113 106 86 69 81 91 98 99 97 94 103 111 110 179 187 206 224 242 257 250 229 251 286 296 292 259 265 273 282 286 289
143 139 139 137 134 139 140 141 143 142 141 137 134 130 114 88 73 79 93 94 96 96 103 237 220 226 222 225 226 216 216 232 232 234 263 287 294 279 270 264 266 274 283
Height
1543 1544 1546 1548 1550 1552 1553 1554 1555 1556 1556 1556 1556 1557 1556 1556 1556 1555 1555 1555 1554 1554 1554 1553 1553 1553 1553 1552 1552 1551 1551 1551 1550 1550 1550 1550 1550 1550 1549 1549 1549 1549 1549
1543 1544 1546 1548 1550 1552 1553 1555 1555 1556 1557 1557 1557 1557 1557 1557 1557 1556 1556 1555 1555 1555 1555 1554 1554 1554 1554 1553 1553 1552 1552 1551 1551 1551 1551 1551 1551 1551 1550 1550 1550 1550 1549
1543 1544 1546 1548 1550 1552 1554 1555 1556 1556 1557 1558 1558 1558 1558 1558 1557 1557 1557 1556 1556 1556 1555 1555 1554 1554 1554 1554 1553 1553 1553 1552 1552 1552 1552 1552 1551 1552 1551 1551 1550 1550 1550
1544 1545 1546 1548 1550 1552 1554 1555 1556 1557 1558 1558 1558 1559 1559 1559 1558 1558 1558 1557 1557 1557 1556 1556 1556 1555 1555 1555 1554 1554 1554 1553 1553 1553 1553 1552 1552 1552 1552 1551 1551 1550 1550
1544 1545 1547 1549 1551 1552 1554 1555 1556 1557 1558 1558 1559 1559 1559 1559 1559 1559 1559 1558 1558 1558 1558 1557 1557 1557 1556 1556 1556 1555 1555 1555 1554 1554 1554 1554 1553 1553 1552 1551 1551 1551 1550
1544 1546 1547 1549 1551 1552 1554 1555 1556 1557 1558 1559 1559 1560 1560 1560 1560 1560 1560 1559 1559 1559 1559 1558 1558 1558 1557 1557 1557 1557 1556 1556 1556 1555 1555 1554 1554 1554 1553 1552 1552 1551 1551
1544 1546 1548 1549 1551 1553 1554 1555 1557 1557 1558 1559 1560 1560 1561 1561 1561 1561 1561 1560 1560 1560 1560 1560 1559 1559 1559 1558 1558 1558 1557 1557 1557 1556 1556 1555 1555 1554 1554 1553 1552 1552 1551
1545 1546 1547 1549 1551 1553 1554 1556 1557 1558 1559 1560 1560 1561 1561 1561 1561 1561 1561 1561 1561 1561 1561 1561 1560 1560 1559 1559 1559 1558 1558 1558 1557 1557 1556 1555 1555 1554 1554 1553 1552 1552 1551
1544 1546 1547 1549 1551 1553 1554 1555 1557 1558 1559 1560 1560 1561 1561 1562 1562 1562 1562 1562 1562 1562 1562 1561 1561 1561 1560 1560 1559 1559 1558 1558 1557 1556 1556 1555 1554 1554 1553 1553 1552 1552 1551
1543 1545 1546 1548 1550 1552 1554 1555 1556 1557 1559 1560 1560 1561 1561 1562 1562 1563 1563 1563 1563 1562 1562 1562 1562 1561 1561 1560 1559 1559 1558 1557 1557 1556 1555 1554 1553 1553 1552 1552 1552 1551 1550
1542 1543 1545 1547 1549 1551 1553 1554 1556 1557 1558 1559 1560 1561 1561 1562 1562 1562 1563 1563 1563 1563 1562 1562 1562 1561 1561 1560 1559 1558 1557 1556 1556 1555 1554 1553 1552 1551 1551 1551 1550 1549 1548
1539 1541 1543 1545 1548 1550 1552 1553 1555 1556 1557 1559 1560 1560 1561 1561 1562 1562 1562 1562 1562 1562 1562 1562 1561 1560 1560 1559 1558 1557 1556 1555 1554 1553 1552 1551 1549 1549 1548 1548 1548 1547 1546
1538 1539 1541 1544 1546 1548 1550 1552 1554 1555 1556 1558 1559 1560 1560 1561 1561 1562 1562 1562 1562 1561 1561 1560 1560 1559 1558 1557 1556 1555 1554 1553 1552 1551 1549 1548 1547 1546 1545 1545 1544 1544 1543
1535 1537 1539 1542 1544 1546 1549 1551 1552 1554 1555 1557 1558 1559 1559 1560 1560 1561 1561 1561 1560 1560 1559 1559 1558 1557 1556 1555 1554 1553 1552 1550 1549 1548 1547 1545 1544 1543 1542 1541 1540 1540 1539
1532 1535 1537 1539 1542 1544 1547 1549 1551 1553 1554 1556 1557 1558 1558 1559 1559 1559 1559 1559 1559 1558 1558 1557 1556 1555 1554 1553 1552 1550 1549 1547 1546 1544 1543 1542 1540 1539 1538 1537 1536 1535 1535
1529 1532 1534 1537 1540 1542 1545 1547 1549 1551 1553 1554 1555 1556 1557 1557 1558 1558 1558 1557 1557 1556 1556 1555 1554 1553 1551 1550 1549 1547 1545 1544 1542 1541 1539 1538 1537 1535 1534 1532 1531 1530 1530
1525 1528 1531 1534 1537 1540 1543 1545 1548 1550 1551 1553 1554 1555 1555 1556 1556 1556 1556 1555 1555 1554 1553 1552 1551 1550 1548 1547 1545 1543 1542 1540 1539 1537 1536 1535 1533 1532 1530 1529 1527 1526 1525
1522 1524 1528 1531 1534 1537 1540 1543 1546 1548 1549 1551 1552 1553 1553 1554 1554 1554 1553 1553 1552 1551 1550 1549 1548 1546 1545 1543 1541 1540 1538 1537 1535 1534 1532 1531 1530 1529 1528 1526 1524 1523 1522
1518 1521 1524 1527 1531 1534 1538 1541 1544 1546 1547 1549 1550 1551 1551 1551 1551 1551 1551 1550 1549 1548 1547 1546 1545 1543 1541 1539 1537 1536 1534 1533 1531 1530 1529 1528 1527 1526 1525 1523 1522 1520 1518
1515 1517 1521 1524 1528 1532 1535 1538 1541 1543 1545 1546 1547 1548 1549 1549 1548 1548 1547 1547 1546 1545 1544 1543 1541 1540 1538 1536 1533 1532 1530 1529 1527 1526 1526 1526 1525 1523 1522 1520 1519 1517 1515
1512 1514 1518 1521 1525 1528 1532 1535 1537 1540 1542 1544 1545 1545 1546 1546 1546 1545 1544 1544 1543 1542 1541 1540 1538 1537 1535 1533 1530 1527 1526 1524 1523 1522 1522 1522 1521 1520 1518 1517 1515 1513 1510
1510 1512 1515 1519 1523 1526 1529 1532 1535 1538 1540 1541 1542 1543 1543 1543 1543 1542 1542 1541 1540 1539 1538 1537 1536 1534 1533 1531 1528 1524 1521 1520 1519 1519 1519 1518 1516 1515 1514 1512 1510 1507 1504
1508 1510 1514 1517 1520 1524 1527 1530 1533 1535 1537 1539 1539 1540 1541 1541 1540 1540 1539 1538 1538 1537 1536 1535 1533 1532 1530 1529 1527 1526 1522 1518 1515 1511 1512 1511 1510 1509 1507 1505 1503 1501 1498
1506 1509 1512 1515 1519 1522 1525 1527 1530 1532 1534 1536 1537 1538 1538 1538 1538 1537 1537 1536 1535 1534 1533 1532 1531 1529 1528 1526 1525 1523 1522 1519 1515 1507 1504 1505 1504 1501 1500 1498 1495 1493 1491
1504 1507 1510 1513 1516 1520 1522 1525 1528 1530 1532 1534 1535 1535 1536 1536 1535 1535 1534 1534 1533 1532 1531 1530 1528 1527 1525 1523 1521 1519 1517 1515 1512 1507 1499 1495 1494 1493 1491 1489 1487 1485 1483
1502 1505 1508 1511 1514 1517 1520 1523 1526 1528 1530 1531 1532 1533 1533 1533 1533 1532 1532 1531 1530 1529 1528 1527 1525 1523 1521 1519 1517 1515 1513 1510 1507 1503 1496 1490 1486 1483 1482 1481 1479 1477 1474